Location: Bayshore Village Mobile Home Park
(26.6945°N, 81.8642°W)
Time: 22:07:36
(UTC+00:00)

Cosmos 1743 Rocket - Pass Details

Date: 17 June 2021
Orbit: 604 x 633 km, 82.6° (Epoch: 31 July)

Event Time Altitude Azimuth Distance (km) Brightness Sun altitude
Exits shadow 09:41:25 13° 215° (SW) 1,752 5.3 -11.0°
Maximum altitude 09:44:50 36° 278° (W) 982 4.2 -10.4°
Drops below altitude 10° 09:48:52 10° 346° (NNW) 1,981 6.4 -9.6°
Sets 09:51:15 0° 355° (N) 2,895 7.4 -9.2°
